Weather in Antalaha

Madagascar     14°54′22″S   50°16′33″E
temp.,
°C
wind,
m/s
gust,
m/s
humid.,
%
clouds,
%
prec.,
mm/h
press.,
hPa
HPBL,
m
13 april, tue
tue1300:00+22sw1289100 0.0 101566
03:00+22sw238953 0.1 101474
06:00+22ssw12905 0.0 101557
09:00+29sse245912 0.0 10161261
12:00+30se456099 0.8 10141335
15:00+27se36835 2.4 1013674
18:00+23s259692 2.7 1014162
21:00+22ssw239696 3.1 101778
14 april, wed
wed1400:00+22se1298100 2.9 101699
03:00+22sw1298100 4.6 1014106
06:00+21sw1197100 0.0 101543
09:00+28se126399 0.0 1016701
12:00+29e335556 0.0 10131332
15:00+28ese336495 0.0 1012866
18:00+23s2493100 0.3 1014105
21:00+22ssw229796 0.4 101559
15 april, thu
thu1500:00+22sw11968 0.2 101441
03:00+21sw119523 0.2 101341
06:00+21sw129462 0.0 101445
09:00+29sse135869 0.0 1014974
12:00+30e445977 0.0 10121437
15:00+29ese346678 0.1 10111025
18:00+24sse248842 0.3 1012145
21:00+23ssw129613 0.3 101452
16 april, fri
fri1600:00+22sw119656 0.0 101341
03:00+22sw11955 0.0 101135
06:00+21sw11935 0.0 101338
09:00+29ese11605 0.0 1013851
12:00+30ene325822 0.0 10111347
15:00+29e326715 0.0 1010849
18:00+24se12895 0.0 101166
21:00+23wsw119514 0.0 101335
17 april, sat
sat1700:00+22w119793 0.0 101226
03:00+22wsw119711 0.0 101127
06:00+22w11954 0.0 101327
09:00+29n12630 0.0 1013766
12:00+30ne32595 0.0 10111125
15:00+29ne336267 0.0 1011797
18:00+24n1184100 0.1 101364
21:00+23wsw1191100 0.3 101539